SWA383 KTPA-KLAX

Flight info

Callsign SWA383
Flight time 5h 4m
Altitude 30000
Route DORMR3 FROOT ROZZI Q100 LEV/N0471F320 LCH LOA AGJ SJT INK J4 CONNE/N0470F340 J4 SSO J50 ITEMM BXK J4 WLVRN ESTWD HLYWD1
Aircraft B738/M-SDE2E3FGHIRWXY/LB1

Departure

Time 2026-04-25 15:08
Airport Tampa International Airport (KTPA)

Arrival

Time 2026-04-25 20:13
Airport Los Angeles International Airport (KLAX)
Time Latitude Longitude Altitude Speed Heading
2026-04-25 14:33 27.98296 -82.53120 24 ft 0 kts 271°
2026-04-25 14:56 27.98295 -82.53120 24 ft 0 kts 271°
2026-04-25 14:56 27.98295 -82.53104 24 ft 2 kts 277°
2026-04-25 14:57 27.98291 -82.53088 24 ft 2 kts 294°
2026-04-25 14:57 27.98284 -82.53072 24 ft 2 kts 308°
2026-04-25 14:57 27.98273 -82.53060 24 ft 2 kts 322°
2026-04-25 14:57 27.98260 -82.53052 24 ft 2 kts 336°
2026-04-25 14:58 27.98246 -82.53046 24 ft 2 kts 351°
2026-04-25 14:58 27.98237 -82.53046 24 ft 0 kts 360°
2026-04-25 14:58 27.98231 -82.53046 24 ft 0 kts
2026-04-25 15:01 27.98263 -82.53046 24 ft 7 kts 358°
2026-04-25 15:01 27.98321 -82.53045 24 ft 11 kts
2026-04-25 15:02 27.98384 -82.53064 24 ft 6 kts 321°
2026-04-25 15:02 27.98423 -82.53104 24 ft 6 kts 315°
2026-04-25 15:02 27.98456 -82.53138 24 ft 7 kts 319°
2026-04-25 15:02 27.98518 -82.53149 24 ft 10 kts
2026-04-25 15:03 27.98562 -82.53217 24 ft 14 kts 271°
2026-04-25 15:03 27.98566 -82.53331 23 ft 14 kts 272°
2026-04-25 15:03 27.98569 -82.53439 22 ft 13 kts 270°
2026-04-25 15:03 27.98571 -82.53547 21 ft 15 kts 271°
2026-04-25 15:04 27.98574 -82.53677 21 ft 16 kts 271°
2026-04-25 15:04 27.98578 -82.53803 21 ft 15 kts 272°
2026-04-25 15:04 27.98583 -82.53915 20 ft 13 kts 282°
2026-04-25 15:04 27.98656 -82.53951 19 ft 12 kts
2026-04-25 15:05 27.98739 -82.53947 18 ft 11 kts
2026-04-25 15:05 27.98813 -82.53944 18 ft 10 kts
2026-04-25 15:05 27.98901 -82.53941 18 ft 15 kts
2026-04-25 15:06 27.99091 -82.53933 18 ft 11 kts
2026-04-25 15:06 27.99182 -82.53932 19 ft 12 kts
2026-04-25 15:06 27.99262 -82.53930 20 ft 10 kts
2026-04-25 15:06 27.99323 -82.53941 21 ft 9 kts 317°
2026-04-25 15:07 27.99341 -82.54045 21 ft 18 kts 274°
2026-04-25 15:07 27.99334 -82.54130 20 ft 9 kts 232°
2026-04-25 15:07 27.99269 -82.54139 19 ft 13 kts 180°
2026-04-25 15:07 27.99056 -82.54143 18 ft 58 kts 182°
2026-04-25 15:08 27.98400 -82.54165 18 ft 127 kts 181°
2026-04-25 15:08 27.97306 -82.54202 67 ft 179 kts 181°
2026-04-25 15:08 27.96050 -82.54220 756 ft 184 kts 180°
2026-04-25 15:08 27.94729 -82.54209 1363 ft 195 kts 179°
2026-04-25 15:09 27.93307 -82.54349 1756 ft 215 kts 189°
2026-04-25 15:09 27.91794 -82.54767 2228 ft 232 kts 194°
2026-04-25 15:09 27.88567 -82.55974 3350 ft 259 kts 208°
2026-04-25 15:10 27.87274 -82.57439 3954 ft 272 kts 239°
2026-04-25 15:10 27.86492 -82.59348 4795 ft 273 kts 247°
2026-04-25 15:10 27.85004 -82.63297 6415 ft 276 kts 245°
2026-04-25 15:11 27.84169 -82.65254 7155 ft 280 kts 244°
2026-04-25 15:11 27.83293 -82.67231 7903 ft 284 kts 244°
2026-04-25 15:11 27.82411 -82.69202 8642 ft 286 kts 245°
2026-04-25 15:12 27.80608 -82.73251 10076 ft 292 kts 246°
2026-04-25 15:12 27.79695 -82.75311 10541 ft 304 kts 246°
2026-04-25 15:12 27.78719 -82.77519 10928 ft 319 kts 246°
2026-04-25 15:12 27.78383 -82.78277 11055 ft 324 kts 246°
2026-04-25 15:13 27.76662 -82.82147 11937 ft 338 kts 246°
2026-04-25 15:13 27.74538 -82.86899 13357 ft 342 kts 247°
2026-04-25 15:13 27.73462 -82.89307 14038 ft 345 kts 247°
2026-04-25 15:14 27.72376 -82.91741 14712 ft 348 kts 247°
2026-04-25 15:14 27.71298 -82.94156 15392 ft 350 kts 247°
2026-04-25 15:14 27.70192 -82.96633 15943 ft 353 kts 246°
2026-04-25 15:14 27.69086 -82.99108 16592 ft 356 kts 246°
2026-04-25 15:15 27.67979 -83.01618 17212 ft 359 kts 248°
2026-04-25 15:15 27.67017 -83.04204 17791 ft 359 kts 254°
2026-04-25 15:15 27.66353 -83.06908 18320 ft 360 kts 261°
2026-04-25 15:15 27.65946 -83.09676 18835 ft 362 kts 265°
2026-04-25 15:16 27.65665 -83.12487 19323 ft 365 kts 267°
2026-04-25 15:16 27.65425 -83.15344 19857 ft 366 kts 268°
2026-04-25 15:16 27.64946 -83.21107 20844 ft 371 kts 268°
2026-04-25 15:17 27.64430 -83.26943 21742 ft 377 kts 268°
2026-04-25 15:17 27.64165 -83.29852 22220 ft 379 kts 268°
2026-04-25 15:17 27.63892 -83.32811 22639 ft 382 kts 268°
2026-04-25 15:18 27.63612 -83.35813 23024 ft 385 kts 268°
2026-04-25 15:18 27.63049 -83.41824 23812 ft 392 kts 268°
2026-04-25 15:18 27.62760 -83.44894 24198 ft 395 kts 267°
2026-04-25 15:19 27.62469 -83.47964 24606 ft 397 kts 268°
2026-04-25 15:19 27.62372 -83.48994 24758 ft 397 kts 268°
2026-04-25 15:19 27.61878 -83.54192 25362 ft 402 kts 268°
2026-04-25 15:19 27.61580 -83.57320 25762 ft 404 kts 267°
2026-04-25 15:20 27.61280 -83.60454 26107 ft 406 kts 268°
2026-04-25 15:20 27.60977 -83.63614 26541 ft 406 kts 267°
2026-04-25 15:20 27.60674 -83.66785 26735 ft 412 kts 267°
2026-04-25 15:20 27.60365 -83.69989 27248 ft 410 kts 267°
2026-04-25 15:21 27.60055 -83.73199 27516 ft 414 kts 267°
2026-04-25 15:21 27.59746 -83.76404 27833 ft 417 kts 267°
2026-04-25 15:21 27.59429 -83.79680 28145 ft 419 kts 267°
2026-04-25 15:21 27.59114 -83.82923 28485 ft 420 kts 267°
2026-04-25 15:22 27.58794 -83.86203 28747 ft 424 kts 267°
2026-04-25 15:22 27.58475 -83.89462 29226 ft 421 kts 267°
2026-04-25 15:22 27.58153 -83.92760 29372 ft 427 kts 267°
2026-04-25 15:22 27.57826 -83.96103 29740 ft 427 kts 266°
2026-04-25 15:23 27.57500 -83.99412 29935 ft 429 kts 267°
2026-04-25 15:23 27.57169 -84.02775 29964 ft 431 kts 267°
2026-04-25 15:23 27.56508 -84.09425 29966 ft 424 kts 267°
2026-04-25 15:24 27.56142 -84.16069 29953 ft 425 kts 274°
2026-04-25 15:24 27.56447 -84.20489 29948 ft 418 kts 280°
2026-04-25 15:25 27.57743 -84.29079 29953 ft 419 kts 283°
2026-04-25 15:25 27.58845 -84.35532 29944 ft 418 kts 283°
2026-04-25 15:26 27.59933 -84.42013 29948 ft 419 kts 283°
2026-04-25 15:26 27.60995 -84.48473 29949 ft 417 kts 283°
2026-04-25 15:27 27.62032 -84.54880 29943 ft 415 kts 283°
2026-04-25 15:28 27.63579 -84.64520 29937 ft 414 kts 283°
2026-04-25 15:28 27.64609 -84.70961 29953 ft 421 kts 282°
2026-04-25 15:29 27.65626 -84.77355 29950 ft 414 kts 282°
2026-04-25 15:29 27.66654 -84.83832 29944 ft 421 kts 282°
2026-04-25 15:30 27.67673 -84.90271 29950 ft 416 kts 282°
2026-04-25 15:30 27.68700 -84.96790 29948 ft 421 kts 282°
2026-04-25 15:31 27.69703 -85.03183 29952 ft 412 kts 282°
2026-04-25 15:31 27.70702 -85.09565 29948 ft 417 kts 282°
2026-04-25 15:32 27.71710 -85.16009 29944 ft 416 kts 282°
2026-04-25 15:32 27.72707 -85.22416 29956 ft 418 kts 282°
2026-04-25 15:33 27.74698 -85.31885 29949 ft 409 kts 291°
2026-04-25 15:33 27.76941 -85.37823 29951 ft 413 kts 296°
2026-04-25 15:34 27.79392 -85.43618 29959 ft 410 kts 297°
2026-04-25 15:34 27.81046 -85.47498 29961 ft 408 kts 296°
2026-04-25 15:35 27.85546 -85.58202 29967 ft 412 kts 296°
2026-04-25 15:36 27.89167 -85.66924 29968 ft 411 kts 295°
2026-04-25 15:36 27.91594 -85.72791 29966 ft 412 kts 296°
2026-04-25 15:37 27.94005 -85.78635 29980 ft 410 kts 295°
2026-04-25 15:37 27.96419 -85.84495 29968 ft 408 kts 295°
2026-04-25 15:38 27.98821 -85.90325 29966 ft 408 kts 296°
2026-04-25 15:38 28.01230 -85.96183 29967 ft 413 kts 295°
2026-04-25 15:39 28.03620 -86.02007 29963 ft 402 kts 295°
2026-04-25 15:39 28.06001 -86.07818 29966 ft 410 kts 295°
2026-04-25 15:40 28.07592 -86.11703 29965 ft 406 kts 295°
2026-04-25 15:40 28.10768 -86.19473 29969 ft 408 kts 296°
2026-04-25 15:41 28.13144 -86.25297 29966 ft 407 kts 295°
2026-04-25 15:41 28.15514 -86.31114 29966 ft 406 kts 295°
2026-04-25 15:42 28.17878 -86.36929 29963 ft 405 kts 295°
2026-04-25 15:42 28.20234 -86.42728 29968 ft 404 kts 296°
2026-04-25 15:43 28.22611 -86.48589 29965 ft 407 kts 295°
2026-04-25 15:43 28.24964 -86.54395 29962 ft 405 kts 295°
2026-04-25 15:44 28.27319 -86.60219 29961 ft 406 kts 295°
2026-04-25 15:44 28.29672 -86.66048 29965 ft 406 kts 295°
2026-04-25 15:45 28.31964 -86.71913 29968 ft 406 kts 292°
2026-04-25 15:45 28.33228 -86.75916 29956 ft 408 kts 289°
2026-04-25 15:46 28.35525 -86.84069 29957 ft 406 kts 289°
2026-04-25 15:46 28.37255 -86.90175 29950 ft 402 kts 289°
2026-04-25 15:47 28.38999 -86.96233 29945 ft 404 kts 289°
2026-04-25 15:47 28.40758 -87.02301 29942 ft 405 kts 289°
2026-04-25 15:48 28.42512 -87.08350 29943 ft 404 kts 290°
2026-04-25 15:48 28.44287 -87.14472 29946 ft 406 kts 290°
2026-04-25 15:49 28.46032 -87.20499 29938 ft 403 kts 290°
2026-04-25 15:49 28.47786 -87.26571 29941 ft 406 kts 290°
2026-04-25 15:50 28.49534 -87.32633 29944 ft 404 kts 290°
2026-04-25 15:50 28.51290 -87.38732 29938 ft 403 kts 290°
2026-04-25 15:51 28.52444 -87.42750 29944 ft 405 kts 290°
2026-04-25 15:51 28.54779 -87.50893 29942 ft 404 kts 290°
2026-04-25 15:52 28.56515 -87.56957 29939 ft 405 kts 290°
2026-04-25 15:52 28.58266 -87.63088 29943 ft 404 kts 290°
2026-04-25 15:53 28.59984 -87.69118 29941 ft 404 kts 289°
2026-04-25 15:53 28.61709 -87.75184 29934 ft 402 kts 289°
2026-04-25 15:54 28.63443 -87.81287 29943 ft 405 kts 289°
2026-04-25 15:54 28.65161 -87.87347 29942 ft 403 kts 289°
2026-04-25 15:55 28.66883 -87.93430 29944 ft 405 kts 289°
2026-04-25 15:55 28.68608 -87.99537 29949 ft 405 kts 289°
2026-04-25 15:56 28.70329 -88.05644 29948 ft 404 kts 289°
2026-04-25 15:56 28.72037 -88.11716 29946 ft 403 kts 289°
2026-04-25 15:57 28.73745 -88.17802 29950 ft 404 kts 289°
2026-04-25 15:57 28.75442 -88.23861 29944 ft 403 kts 289°
2026-04-25 15:58 28.77140 -88.29932 29945 ft 403 kts 289°
2026-04-25 15:58 28.78835 -88.36002 29950 ft 401 kts 289°
2026-04-25 15:59 28.80525 -88.42065 29939 ft 401 kts 289°
2026-04-25 15:59 28.82212 -88.48134 29946 ft 402 kts 289°
2026-04-25 16:00 28.83327 -88.52150 29944 ft 402 kts 289°
2026-04-25 16:00 28.85576 -88.60270 29942 ft 400 kts 289°
2026-04-25 16:01 28.87244 -88.66303 30167 ft 401 kts 289°
2026-04-25 16:01 28.88086 -88.69349 30402 ft 405 kts 289°
2026-04-25 16:01 28.88895 -88.72433 30792 ft 404 kts 287°
2026-04-25 16:02 28.89601 -88.75526 31060 ft 407 kts 285°
2026-04-25 16:02 28.90271 -88.78724 31266 ft 411 kts 285°
2026-04-25 16:02 28.90917 -88.81905 31535 ft 413 kts 285°
2026-04-25 16:02 28.91565 -88.85094 31881 ft 412 kts 285°
2026-04-25 16:03 28.92885 -88.91502 31934 ft 416 kts 285°
2026-04-25 16:03 28.94218 -88.97875 31925 ft 412 kts 285°
2026-04-25 16:04 28.95556 -89.04227 31915 ft 410 kts 285°
2026-04-25 16:04 28.96889 -89.10548 31928 ft 407 kts 285°
2026-04-25 16:05 28.98217 -89.16849 31932 ft 411 kts 285°
2026-04-25 16:06 29.00214 -89.26361 31921 ft 410 kts 285°
2026-04-25 16:06 29.01540 -89.32694 31925 ft 410 kts 285°
2026-04-25 16:07 29.02864 -89.39036 31923 ft 412 kts 285°
2026-04-25 16:07 29.04186 -89.45382 31924 ft 409 kts 285°
2026-04-25 16:08 29.05507 -89.51734 31926 ft 410 kts 286°
2026-04-25 16:08 29.06814 -89.58038 31918 ft 408 kts 285°
2026-04-25 16:09 29.08111 -89.64312 31927 ft 406 kts 286°
2026-04-25 16:09 29.09424 -89.70670 31925 ft 409 kts 285°
2026-04-25 16:10 29.10715 -89.76942 31924 ft 408 kts 285°
2026-04-25 16:10 29.12005 -89.83225 31922 ft 407 kts 285°
2026-04-25 16:11 29.13294 -89.89526 31923 ft 405 kts 285°
2026-04-25 16:11 29.14574 -89.95801 31914 ft 407 kts 285°
2026-04-25 16:12 29.15864 -90.02129 31923 ft 407 kts 285°
2026-04-25 16:12 29.17148 -90.08423 31919 ft 405 kts 286°
2026-04-25 16:13 29.18811 -90.14542 31923 ft 403 kts 291°
2026-04-25 16:13 29.20830 -90.20524 31938 ft 401 kts 293°
2026-04-25 16:14 29.22899 -90.26512 31921 ft 403 kts 293°
2026-04-25 16:14 29.24941 -90.32511 31941 ft 402 kts 292°
2026-04-25 16:15 29.26958 -90.38503 31943 ft 402 kts 293°
2026-04-25 16:15 29.28956 -90.44485 31936 ft 400 kts 292°
2026-04-25 16:16 29.30949 -90.50475 31926 ft 403 kts 292°
2026-04-25 16:16 29.32943 -90.56473 31952 ft 401 kts 292°
2026-04-25 16:17 29.34934 -90.62479 31953 ft 403 kts 292°
2026-04-25 16:17 29.36922 -90.68488 31940 ft 400 kts 292°
2026-04-25 16:18 29.38894 -90.74459 31930 ft 403 kts 292°
2026-04-25 16:18 29.40872 -90.80455 31955 ft 400 kts 292°
2026-04-25 16:19 29.42859 -90.86486 31949 ft 403 kts 292°
2026-04-25 16:19 29.44834 -90.92503 31938 ft 401 kts 292°
2026-04-25 16:20 29.47794 -91.01530 31902 ft 403 kts 292°
2026-04-25 16:21 29.50760 -91.10596 31873 ft 407 kts 291°
2026-04-25 16:21 29.52750 -91.16688 31887 ft 409 kts 291°
2026-04-25 16:22 29.54734 -91.22781 31891 ft 406 kts 291°
2026-04-25 16:22 29.56720 -91.28886 31911 ft 407 kts 291°
2026-04-25 16:23 29.58684 -91.34940 31928 ft 404 kts 291°
2026-04-25 16:23 29.60649 -91.41013 31908 ft 403 kts 292°
2026-04-25 16:24 29.62622 -91.47118 31910 ft 404 kts 292°
2026-04-25 16:24 29.64579 -91.53160 31893 ft 403 kts 291°
2026-04-25 16:25 29.66539 -91.59242 31885 ft 404 kts 291°
2026-04-25 16:25 29.68496 -91.65321 31896 ft 401 kts 291°
2026-04-25 16:26 29.70441 -91.71375 31891 ft 403 kts 291°
2026-04-25 16:26 29.72383 -91.77434 31885 ft 403 kts 291°
2026-04-25 16:27 29.74299 -91.83404 31896 ft 398 kts 291°
2026-04-25 16:27 29.76231 -91.89450 31901 ft 402 kts 291°
2026-04-25 16:28 29.78164 -91.95524 31894 ft 400 kts 291°
2026-04-25 16:28 29.80080 -92.01548 31900 ft 398 kts 292°
2026-04-25 16:29 29.81994 -92.07571 31908 ft 397 kts 292°
2026-04-25 16:29 29.83897 -92.13569 31897 ft 399 kts 292°
2026-04-25 16:30 29.85780 -92.19527 31902 ft 394 kts 291°
2026-04-25 16:30 29.87662 -92.25480 31897 ft 398 kts 291°
2026-04-25 16:31 29.89552 -92.31474 31899 ft 395 kts 291°
2026-04-25 16:31 29.91435 -92.37447 31885 ft 397 kts 291°
2026-04-25 16:32 29.93318 -92.43441 31883 ft 396 kts 291°
2026-04-25 16:32 29.95177 -92.49371 31875 ft 395 kts 291°
2026-04-25 16:33 29.97058 -92.55376 31874 ft 396 kts 291°
2026-04-25 16:33 29.98926 -92.61352 31863 ft 394 kts 291°
2026-04-25 16:34 30.00787 -92.67319 31868 ft 395 kts 291°
2026-04-25 16:34 30.02641 -92.73279 31864 ft 394 kts 291°
2026-04-25 16:35 30.04478 -92.79189 31866 ft 393 kts 291°
2026-04-25 16:35 30.06324 -92.85133 31878 ft 392 kts 291°
2026-04-25 16:36 30.08164 -92.91067 31898 ft 393 kts 291°
2026-04-25 16:36 30.09992 -92.96983 31909 ft 389 kts 291°
2026-04-25 16:37 30.11830 -93.02940 31913 ft 392 kts 291°
2026-04-25 16:37 30.13652 -93.08858 31913 ft 389 kts 291°
2026-04-25 16:38 30.15568 -93.14759 31919 ft 389 kts 293°
2026-04-25 16:38 30.17661 -93.20540 31919 ft 389 kts 294°
2026-04-25 16:39 30.19771 -93.26333 31918 ft 390 kts 293°
2026-04-25 16:39 30.21855 -93.32125 31925 ft 389 kts 293°
2026-04-25 16:40 30.23919 -93.37913 31911 ft 389 kts 293°
2026-04-25 16:40 30.25971 -93.43695 31924 ft 389 kts 293°
2026-04-25 16:41 30.28021 -93.49483 31915 ft 388 kts 293°
2026-04-25 16:41 30.31084 -93.58154 31872 ft 387 kts 293°
2026-04-25 16:42 30.33119 -93.63922 31862 ft 389 kts 293°
2026-04-25 16:42 30.35172 -93.69762 31859 ft 388 kts 292°
2026-04-25 16:43 30.37200 -93.75535 31854 ft 388 kts 292°
2026-04-25 16:43 30.39233 -93.81329 31847 ft 387 kts 292°
2026-04-25 16:44 30.41262 -93.87123 31846 ft 387 kts 292°
2026-04-25 16:44 30.43284 -93.92908 31853 ft 388 kts 292°
2026-04-25 16:45 30.45296 -93.98675 31847 ft 386 kts 292°
2026-04-25 16:45 30.47307 -94.04444 31850 ft 386 kts 292°
2026-04-25 16:46 30.49310 -94.10203 31846 ft 386 kts 292°
2026-04-25 16:46 30.50653 -94.14067 31849 ft 388 kts 292°
2026-04-25 16:47 30.53328 -94.21781 31847 ft 384 kts 292°
2026-04-25 16:47 30.55320 -94.27535 31851 ft 385 kts 292°
2026-04-25 16:48 30.57307 -94.33276 31856 ft 383 kts 292°
2026-04-25 16:48 30.59298 -94.39047 31860 ft 385 kts 292°
2026-04-25 16:49 30.61269 -94.44774 31861 ft 384 kts 292°
2026-04-25 16:49 30.63243 -94.50520 31860 ft 383 kts 292°
2026-04-25 16:50 30.65218 -94.56280 31856 ft 383 kts 292°
2026-04-25 16:50 30.67182 -94.62011 31864 ft 383 kts 292°
2026-04-25 16:51 30.69154 -94.67768 31863 ft 385 kts 291°
2026-04-25 16:51 30.70471 -94.71624 31855 ft 383 kts 291°
2026-04-25 16:52 30.73085 -94.79297 31862 ft 383 kts 291°
2026-04-25 16:52 30.75036 -94.85028 31859 ft 384 kts 291°
2026-04-25 16:53 30.77979 -94.93684 31860 ft 382 kts 291°
2026-04-25 16:54 30.79938 -94.99468 31857 ft 383 kts 291°
2026-04-25 16:54 30.81891 -95.05244 31859 ft 383 kts 291°
2026-04-25 16:55 30.83843 -95.11024 31856 ft 382 kts 291°
2026-04-25 16:55 30.85794 -95.16803 31857 ft 384 kts 291°
2026-04-25 16:56 30.87735 -95.22575 31855 ft 382 kts 291°
2026-04-25 16:56 30.89678 -95.28357 31854 ft 383 kts 291°
2026-04-25 16:57 30.91613 -95.34116 31851 ft 383 kts 291°
2026-04-25 16:57 30.93544 -95.39887 31864 ft 382 kts 291°
2026-04-25 16:58 30.95471 -95.45663 31851 ft 384 kts 291°
2026-04-25 16:58 30.97395 -95.51430 31856 ft 383 kts 290°
2026-04-25 16:59 30.99319 -95.57198 31854 ft 382 kts 290°
2026-04-25 16:59 31.01244 -95.62988 31856 ft 382 kts 291°
2026-04-25 17:00 31.03160 -95.68766 31858 ft 383 kts 290°
2026-04-25 17:00 31.05079 -95.74558 31857 ft 382 kts 290°
2026-04-25 17:01 31.06985 -95.80311 31855 ft 382 kts 290°
2026-04-25 17:01 31.08908 -95.86140 31855 ft 381 kts 290°
2026-04-25 17:02 31.10794 -95.91874 31860 ft 381 kts 289°
2026-04-25 17:02 31.12234 -95.97806 31847 ft 380 kts 281°
2026-04-25 17:03 31.12733 -96.03973 31861 ft 382 kts 274°
2026-04-25 17:03 31.12934 -96.10191 31856 ft 382 kts 274°
2026-04-25 17:04 31.13126 -96.16376 31851 ft 382 kts 274°
2026-04-25 17:04 31.13329 -96.22550 31850 ft 382 kts 274°
2026-04-25 17:05 31.13538 -96.28729 31844 ft 382 kts 274°
2026-04-25 17:05 31.13852 -96.38011 31845 ft 381 kts 274°
2026-04-25 17:06 31.14059 -96.44215 31838 ft 383 kts 274°
2026-04-25 17:06 31.14260 -96.50394 31837 ft 381 kts 274°
2026-04-25 17:07 31.14461 -96.56582 31846 ft 383 kts 274°
2026-04-25 17:07 31.14661 -96.62791 31858 ft 382 kts 274°
2026-04-25 17:08 31.14853 -96.68977 31847 ft 383 kts 274°
2026-04-25 17:08 31.15044 -96.75190 31852 ft 383 kts 274°
2026-04-25 17:09 31.15231 -96.81390 31853 ft 383 kts 274°
2026-04-25 17:09 31.15417 -96.87585 31860 ft 382 kts 274°
2026-04-25 17:10 31.15602 -96.93813 31861 ft 383 kts 274°
2026-04-25 17:10 31.15780 -97.00014 31854 ft 381 kts 274°
2026-04-25 17:11 31.15957 -97.06203 31845 ft 379 kts 274°
2026-04-25 17:11 31.16131 -97.12400 31854 ft 381 kts 274°
2026-04-25 17:12 31.16299 -97.18557 31867 ft 381 kts 274°
2026-04-25 17:12 31.16466 -97.24709 31876 ft 381 kts 274°
2026-04-25 17:13 31.16577 -97.28847 31882 ft 381 kts 274°
2026-04-25 17:13 31.16793 -97.37094 31882 ft 382 kts 274°
2026-04-25 17:14 31.16951 -97.43256 31882 ft 381 kts 274°
2026-04-25 17:14 31.17106 -97.49446 31887 ft 381 kts 274°
2026-04-25 17:15 31.17256 -97.55634 31889 ft 382 kts 274°
2026-04-25 17:15 31.17408 -97.61849 31878 ft 381 kts 274°
2026-04-25 17:16 31.17556 -97.67996 31864 ft 382 kts 273°
2026-04-25 17:16 31.17701 -97.74229 31875 ft 382 kts 273°
2026-04-25 17:17 31.17839 -97.80410 31869 ft 383 kts 273°
2026-04-25 17:17 31.17977 -97.86633 31872 ft 382 kts 273°
2026-04-25 17:18 31.18112 -97.92837 31871 ft 383 kts 273°
2026-04-25 17:18 31.18242 -97.99017 31866 ft 382 kts 273°
2026-04-25 17:19 31.18371 -98.05228 31872 ft 381 kts 273°
2026-04-25 17:19 31.18494 -98.11438 31886 ft 383 kts 273°
2026-04-25 17:20 31.18725 -98.17590 31866 ft 378 kts 276°
2026-04-25 17:20 31.19301 -98.23724 31894 ft 382 kts 278°
2026-04-25 17:21 31.19921 -98.29865 31882 ft 380 kts 278°
2026-04-25 17:21 31.20505 -98.36015 31865 ft 382 kts 277°
2026-04-25 17:22 31.20881 -98.40129 31884 ft 381 kts 277°
2026-04-25 17:22 31.21616 -98.48314 31867 ft 382 kts 277°
2026-04-25 17:23 31.22163 -98.54504 31862 ft 382 kts 277°
2026-04-25 17:23 31.22702 -98.60676 31871 ft 381 kts 277°
2026-04-25 17:24 31.23239 -98.66852 31862 ft 382 kts 276°
2026-04-25 17:24 31.23778 -98.73061 31870 ft 382 kts 277°
2026-04-25 17:25 31.24309 -98.79218 31871 ft 381 kts 277°
2026-04-25 17:25 31.24836 -98.85378 31874 ft 382 kts 276°
2026-04-25 17:26 31.25360 -98.91530 31891 ft 380 kts 276°
2026-04-25 17:26 31.25882 -98.97712 31875 ft 381 kts 276°
2026-04-25 17:27 31.26401 -99.03863 31884 ft 381 kts 277°
2026-04-25 17:27 31.26747 -99.07983 31886 ft 381 kts 276°
2026-04-25 17:28 31.27428 -99.16154 31877 ft 381 kts 276°
2026-04-25 17:28 31.27934 -99.22272 31881 ft 378 kts 276°
2026-04-25 17:29 31.28439 -99.28442 31885 ft 379 kts 276°
2026-04-25 17:29 31.28940 -99.34570 31892 ft 380 kts 277°
2026-04-25 17:30 31.29438 -99.40688 31883 ft 380 kts 276°
2026-04-25 17:30 31.29938 -99.46856 31885 ft 380 kts 276°
2026-04-25 17:31 31.30433 -99.53024 31895 ft 380 kts 276°
2026-04-25 17:31 31.30924 -99.59185 31886 ft 380 kts 276°
2026-04-25 17:32 31.31412 -99.65330 31886 ft 380 kts 276°
2026-04-25 17:32 31.31897 -99.71474 31888 ft 379 kts 276°
2026-04-25 17:33 31.32376 -99.77597 31881 ft 379 kts 276°
2026-04-25 17:33 31.32856 -99.83748 31886 ft 379 kts 276°
2026-04-25 17:34 31.33331 -99.89873 31890 ft 377 kts 276°
2026-04-25 17:34 31.33798 -99.95932 31884 ft 376 kts 276°
2026-04-25 17:35 31.34265 -100.02047 31885 ft 377 kts 276°
2026-04-25 17:35 31.34725 -100.08144 31872 ft 376 kts 276°
2026-04-25 17:36 31.35186 -100.14245 31891 ft 379 kts 276°
2026-04-25 17:36 31.35642 -100.20324 31879 ft 377 kts 276°
2026-04-25 17:37 31.36100 -100.26445 31875 ft 377 kts 276°
2026-04-25 17:37 31.36552 -100.32530 31853 ft 377 kts 276°
2026-04-25 17:38 31.36855 -100.36636 31872 ft 377 kts 276°
2026-04-25 17:38 31.37471 -100.44761 31872 ft 377 kts 277°
2026-04-25 17:39 31.38393 -100.50796 31860 ft 377 kts 282°
2026-04-25 17:39 31.39576 -100.56759 31851 ft 379 kts 282°
2026-04-25 17:40 31.40758 -100.62730 31871 ft 377 kts 282°
2026-04-25 17:40 31.41916 -100.68727 31861 ft 377 kts 282°
2026-04-25 17:41 31.43053 -100.74709 31852 ft 378 kts 282°
2026-04-25 17:41 31.44186 -100.80702 31884 ft 378 kts 282°
2026-04-25 17:42 31.45317 -100.86717 31895 ft 377 kts 282°
2026-04-25 17:42 31.46430 -100.92667 31929 ft 377 kts 281°
2026-04-25 17:43 31.47550 -100.98676 31918 ft 378 kts 282°
2026-04-25 17:43 31.48666 -101.04674 31928 ft 379 kts 282°
2026-04-25 17:44 31.49779 -101.10664 31938 ft 377 kts 281°
2026-04-25 17:44 31.50888 -101.16647 31918 ft 377 kts 281°
2026-04-25 17:45 31.51626 -101.20641 31924 ft 378 kts 282°
2026-04-25 17:45 31.53105 -101.28661 31937 ft 379 kts 281°
2026-04-25 17:46 31.54207 -101.34659 31932 ft 376 kts 282°
2026-04-25 17:46 31.55300 -101.40624 31930 ft 378 kts 282°
2026-04-25 17:47 31.56410 -101.46700 31946 ft 379 kts 281°
2026-04-25 17:47 31.57500 -101.52681 31932 ft 377 kts 281°
2026-04-25 17:48 31.59143 -101.61735 31937 ft 379 kts 281°
2026-04-25 17:49 31.60230 -101.67748 31925 ft 378 kts 281°
2026-04-25 17:49 31.61321 -101.73795 31926 ft 379 kts 281°
2026-04-25 17:50 31.62408 -101.79828 31923 ft 378 kts 281°
2026-04-25 17:50 31.63489 -101.85848 31932 ft 379 kts 281°
2026-04-25 17:51 31.64566 -101.91879 31925 ft 377 kts 281°
2026-04-25 17:51 31.65638 -101.97900 31925 ft 377 kts 281°
2026-04-25 17:52 31.66713 -102.03931 31911 ft 379 kts 281°
2026-04-25 17:52 31.67782 -102.09969 31929 ft 381 kts 281°
2026-04-25 17:53 31.68852 -102.16021 31920 ft 377 kts 281°
2026-04-25 17:53 31.69912 -102.22023 31897 ft 377 kts 281°
2026-04-25 17:54 31.70975 -102.28072 31890 ft 378 kts 281°
2026-04-25 17:54 31.72021 -102.34049 31901 ft 378 kts 281°
2026-04-25 17:55 31.73073 -102.40071 31916 ft 376 kts 281°
2026-04-25 17:55 31.74119 -102.46084 31911 ft 375 kts 281°
2026-04-25 17:56 31.75164 -102.52097 31911 ft 377 kts 281°
2026-04-25 17:56 31.76209 -102.58131 31921 ft 375 kts 281°
2026-04-25 17:57 31.77238 -102.64102 31958 ft 375 kts 281°
2026-04-25 17:57 31.78272 -102.70094 31944 ft 374 kts 281°
2026-04-25 17:58 31.79303 -102.76086 31956 ft 373 kts 280°
2026-04-25 17:58 31.80328 -102.82072 31953 ft 373 kts 281°
2026-04-25 17:59 31.81344 -102.88036 31951 ft 374 kts 281°
2026-04-25 17:59 31.82369 -102.94054 31965 ft 373 kts 281°
2026-04-25 18:00 31.83375 -102.99979 31954 ft 372 kts 281°
2026-04-25 18:00 31.84388 -103.05962 31955 ft 374 kts 280°
2026-04-25 18:01 31.85396 -103.11932 31946 ft 371 kts 280°
2026-04-25 18:01 31.86403 -103.17916 31951 ft 374 kts 280°
2026-04-25 18:02 31.87375 -103.23895 31949 ft 370 kts 278°
2026-04-25 18:02 31.87804 -103.29928 31962 ft 372 kts 273°
2026-04-25 18:03 31.87970 -103.36011 31966 ft 371 kts 272°
2026-04-25 18:03 31.88140 -103.42044 31971 ft 369 kts 272°
2026-04-25 18:04 31.88331 -103.48032 31965 ft 367 kts 273°
2026-04-25 18:04 31.88534 -103.54066 31952 ft 369 kts 273°
2026-04-25 18:05 31.88738 -103.60114 31975 ft 369 kts 273°
2026-04-25 18:05 31.88941 -103.66112 31952 ft 366 kts 272°
2026-04-25 18:06 31.89141 -103.72153 31971 ft 369 kts 273°
2026-04-25 18:06 31.89338 -103.78142 31945 ft 367 kts 272°
2026-04-25 18:07 31.89532 -103.84151 31964 ft 371 kts 272°
2026-04-25 18:07 31.89723 -103.90174 31956 ft 369 kts 273°
2026-04-25 18:08 31.89912 -103.96217 31939 ft 367 kts 272°
2026-04-25 18:08 31.90095 -104.02176 31948 ft 368 kts 272°
2026-04-25 18:09 31.90279 -104.08211 31961 ft 370 kts 272°
2026-04-25 18:09 31.90461 -104.14276 31965 ft 368 kts 272°
2026-04-25 18:10 31.90640 -104.20324 31984 ft 370 kts 272°
2026-04-25 18:10 31.90811 -104.26324 31973 ft 366 kts 272°
2026-04-25 18:11 31.90981 -104.32321 31987 ft 368 kts 272°
2026-04-25 18:11 31.91151 -104.38341 32000 ft 368 kts 272°
2026-04-25 18:12 31.91317 -104.44339 32011 ft 367 kts 272°
2026-04-25 18:12 31.91480 -104.50355 32022 ft 368 kts 272°
2026-04-25 18:13 31.91638 -104.56375 32051 ft 367 kts 272°
2026-04-25 18:13 31.91794 -104.62409 32071 ft 366 kts 272°
2026-04-25 18:14 31.92025 -104.71406 32098 ft 364 kts 271°
2026-04-25 18:14 31.92174 -104.77360 32095 ft 368 kts 272°
2026-04-25 18:15 31.92320 -104.83376 32095 ft 367 kts 272°
2026-04-25 18:15 31.92466 -104.89432 32063 ft 365 kts 271°
2026-04-25 18:16 31.92605 -104.95390 32063 ft 366 kts 271°
2026-04-25 18:17 31.92811 -105.04393 32042 ft 368 kts 271°
2026-04-25 18:17 31.92947 -105.10421 32041 ft 367 kts 272°
2026-04-25 18:18 31.93078 -105.16381 32050 ft 366 kts 272°
2026-04-25 18:18 31.93207 -105.22370 32032 ft 366 kts 272°
2026-04-25 18:19 31.93330 -105.28316 32087 ft 365 kts 271°
2026-04-25 18:19 31.93391 -105.31319 32415 ft 368 kts 271°
2026-04-25 18:19 31.93454 -105.34330 32909 ft 366 kts 271°
2026-04-25 18:19 31.93522 -105.37315 33244 ft 368 kts 271°
2026-04-25 18:20 31.93591 -105.40340 33608 ft 370 kts 272°
2026-04-25 18:20 31.93660 -105.43348 34018 ft 370 kts 272°
2026-04-25 18:20 31.93728 -105.46413 34096 ft 374 kts 271°
2026-04-25 18:21 31.93857 -105.52483 34093 ft 370 kts 271°
2026-04-25 18:21 31.93982 -105.58542 34096 ft 371 kts 271°
2026-04-25 18:22 31.94104 -105.64616 34092 ft 370 kts 271°
2026-04-25 18:22 31.94218 -105.70618 34106 ft 369 kts 270°
2026-04-25 18:23 31.94333 -105.76649 34093 ft 371 kts 270°
2026-04-25 18:23 31.94446 -105.82706 34105 ft 368 kts 270°
2026-04-25 18:24 31.94560 -105.88773 34109 ft 371 kts 271°
2026-04-25 18:24 31.94668 -105.94791 34093 ft 369 kts 270°
2026-04-25 18:25 31.94765 -106.00784 34100 ft 369 kts 271°
2026-04-25 18:25 31.94863 -106.06822 34085 ft 368 kts 271°
2026-04-25 18:26 31.94964 -106.12860 34045 ft 368 kts 270°
2026-04-25 18:26 31.95060 -106.18856 34003 ft 367 kts 270°
2026-04-25 18:27 31.95158 -106.24846 34007 ft 368 kts 271°
2026-04-25 18:27 31.95496 -106.30871 34002 ft 368 kts 275°
2026-04-25 18:28 31.96232 -106.36904 34019 ft 371 kts 277°
2026-04-25 18:28 31.96995 -106.42909 34003 ft 368 kts 276°
2026-04-25 18:29 31.98073 -106.51884 33994 ft 372 kts 276°
2026-04-25 18:30 31.99470 -106.63887 34019 ft 374 kts 276°
2026-04-25 18:30 32.00164 -106.69931 34045 ft 371 kts 276°
2026-04-25 18:31 32.00855 -106.75974 34021 ft 372 kts 276°
2026-04-25 18:31 32.01538 -106.81961 34028 ft 370 kts 276°
2026-04-25 18:32 32.02232 -106.88033 34052 ft 372 kts 275°
2026-04-25 18:32 32.02916 -106.94081 34054 ft 371 kts 275°
2026-04-25 18:33 32.03596 -107.00108 34064 ft 371 kts 275°
2026-04-25 18:33 32.04271 -107.06129 34077 ft 371 kts 275°
2026-04-25 18:34 32.04940 -107.12131 34067 ft 369 kts 275°
2026-04-25 18:34 32.05605 -107.18130 34067 ft 372 kts 275°
2026-04-25 18:35 32.06271 -107.24156 34071 ft 371 kts 275°
2026-04-25 18:35 32.06935 -107.30173 34068 ft 372 kts 275°
2026-04-25 18:36 32.07595 -107.36209 34071 ft 374 kts 275°
2026-04-25 18:36 32.08257 -107.42266 34085 ft 372 kts 275°
2026-04-25 18:37 32.08916 -107.48313 34071 ft 373 kts 274°
2026-04-25 18:37 32.09575 -107.54389 34075 ft 372 kts 274°
2026-04-25 18:38 32.10228 -107.60451 34049 ft 374 kts 274°
2026-04-25 18:38 32.10877 -107.66512 34035 ft 371 kts 274°
2026-04-25 18:39 32.11521 -107.72547 34038 ft 374 kts 274°
2026-04-25 18:39 32.12170 -107.78651 34012 ft 373 kts 274°
2026-04-25 18:40 32.12811 -107.84739 34069 ft 373 kts 274°
2026-04-25 18:40 32.13452 -107.90809 34030 ft 373 kts 274°
2026-04-25 18:41 32.14093 -107.96906 34074 ft 372 kts 274°
2026-04-25 18:41 32.14728 -108.02999 34067 ft 374 kts 274°
2026-04-25 18:42 32.15149 -108.07056 34090 ft 372 kts 274°
2026-04-25 18:42 32.15978 -108.15067 34079 ft 372 kts 274°
2026-04-25 18:43 32.16596 -108.21133 34072 ft 373 kts 274°
2026-04-25 18:43 32.17215 -108.27141 34083 ft 368 kts 274°
2026-04-25 18:44 32.17827 -108.33157 34083 ft 371 kts 274°
2026-04-25 18:44 32.18438 -108.39182 34089 ft 368 kts 274°
2026-04-25 18:45 32.19039 -108.45180 34069 ft 371 kts 274°
2026-04-25 18:45 32.19644 -108.51203 34068 ft 372 kts 273°
2026-04-25 18:46 32.20247 -108.57225 34075 ft 370 kts 274°
2026-04-25 18:46 32.20853 -108.63287 34043 ft 371 kts 274°
2026-04-25 18:47 32.21446 -108.69267 34041 ft 368 kts 274°
2026-04-25 18:47 32.22038 -108.75294 34032 ft 368 kts 274°
2026-04-25 18:48 32.22623 -108.81296 34028 ft 370 kts 273°
2026-04-25 18:48 32.23210 -108.87362 34043 ft 369 kts 274°
2026-04-25 18:49 32.23787 -108.93347 34057 ft 369 kts 273°
2026-04-25 18:49 32.24366 -108.99356 34089 ft 369 kts 273°
2026-04-25 18:50 32.24944 -109.05363 34077 ft 367 kts 273°
2026-04-25 18:50 32.25514 -109.11330 34079 ft 367 kts 273°
2026-04-25 18:51 32.25898 -109.15341 34062 ft 369 kts 272°
2026-04-25 18:51 32.26658 -109.23342 34042 ft 370 kts 274°
2026-04-25 18:52 32.27614 -109.29317 34036 ft 369 kts 280°
2026-04-25 18:52 32.29032 -109.35203 34052 ft 376 kts 281°
2026-04-25 18:53 32.30510 -109.41088 34036 ft 371 kts 281°
2026-04-25 18:53 32.31971 -109.46983 34046 ft 373 kts 281°
2026-04-25 18:54 32.34130 -109.55818 34050 ft 372 kts 281°
2026-04-25 18:55 32.35547 -109.61662 34056 ft 371 kts 281°
2026-04-25 18:55 32.36983 -109.67603 34072 ft 374 kts 280°
2026-04-25 18:56 32.38393 -109.73439 34075 ft 371 kts 280°
2026-04-25 18:56 32.39804 -109.79306 34075 ft 372 kts 279°
2026-04-25 18:57 32.41215 -109.85194 34058 ft 371 kts 280°
2026-04-25 18:57 32.42613 -109.91017 34067 ft 373 kts 279°
2026-04-25 18:58 32.44021 -109.96918 34064 ft 374 kts 279°
2026-04-25 18:58 32.46130 -110.05772 34051 ft 372 kts 279°
2026-04-25 18:59 32.48925 -110.17547 34063 ft 372 kts 279°
2026-04-25 19:00 32.51006 -110.26347 34088 ft 371 kts 279°
2026-04-25 19:01 32.53080 -110.35139 34042 ft 369 kts 279°
2026-04-25 19:01 32.54448 -110.40960 34008 ft 370 kts 279°
2026-04-25 19:02 32.56522 -110.49823 34002 ft 371 kts 279°
2026-04-25 19:03 32.58129 -110.56660 34001 ft 369 kts 280°
2026-04-25 19:03 32.60708 -110.64329 34029 ft 379 kts 287°
2026-04-25 19:04 32.64137 -110.72779 34042 ft 379 kts 287°
2026-04-25 19:05 32.68670 -110.84042 34028 ft 377 kts 287°
2026-04-25 19:06 32.70915 -110.89686 34003 ft 379 kts 287°
2026-04-25 19:06 32.74275 -110.98144 34000 ft 377 kts 287°
2026-04-25 19:07 32.77646 -111.06663 33974 ft 377 kts 287°
2026-04-25 19:08 32.80960 -111.15058 33954 ft 376 kts 287°
2026-04-25 19:09 32.84653 -111.24438 33940 ft 377 kts 287°
2026-04-25 19:10 32.88714 -111.34792 33920 ft 378 kts 287°
2026-04-25 19:10 32.90934 -111.40458 33914 ft 377 kts 286°
2026-04-25 19:11 32.93153 -111.46137 33909 ft 377 kts 287°
2026-04-25 19:11 32.95358 -111.51777 33902 ft 378 kts 287°
2026-04-25 19:12 32.97587 -111.57493 33920 ft 377 kts 287°
2026-04-25 19:12 32.99789 -111.63150 33933 ft 377 kts 287°
2026-04-25 19:13 33.01999 -111.68842 33936 ft 378 kts 286°
2026-04-25 19:13 33.04204 -111.74528 33931 ft 377 kts 286°
2026-04-25 19:14 33.06391 -111.80183 33928 ft 377 kts 286°
2026-04-25 19:14 33.08593 -111.85874 33918 ft 378 kts 286°
2026-04-25 19:15 33.10794 -111.91577 33931 ft 377 kts 286°
2026-04-25 19:15 33.12998 -111.97302 33904 ft 379 kts 286°
2026-04-25 19:16 33.15196 -112.03020 33909 ft 378 kts 286°
2026-04-25 19:16 33.17377 -112.08694 33912 ft 378 kts 286°
2026-04-25 19:17 33.19560 -112.14386 33923 ft 377 kts 286°
2026-04-25 19:17 33.21739 -112.20082 33909 ft 379 kts 286°
2026-04-25 19:18 33.23921 -112.25798 33895 ft 380 kts 286°
2026-04-25 19:18 33.26106 -112.31525 33907 ft 379 kts 286°
2026-04-25 19:19 33.28292 -112.37272 33910 ft 381 kts 286°
2026-04-25 19:19 33.30490 -112.43046 33907 ft 379 kts 286°
2026-04-25 19:20 33.32666 -112.48790 33911 ft 381 kts 286°
2026-04-25 19:20 33.34843 -112.54542 33919 ft 383 kts 286°
2026-04-25 19:21 33.37048 -112.60368 33911 ft 383 kts 286°
2026-04-25 19:21 33.40328 -112.69057 33927 ft 379 kts 285°
2026-04-25 19:22 33.42494 -112.74812 33910 ft 381 kts 285°
2026-04-25 19:23 33.45761 -112.83524 33915 ft 383 kts 285°
2026-04-25 19:23 33.48910 -112.92268 33913 ft 382 kts 285°
2026-04-25 19:24 33.50996 -112.98134 33880 ft 383 kts 285°
2026-04-25 19:25 33.55183 -113.09891 33871 ft 383 kts 284°
2026-04-25 19:25 33.57268 -113.15758 33873 ft 384 kts 285°
2026-04-25 19:26 33.59356 -113.21637 33882 ft 385 kts 284°
2026-04-25 19:26 33.61445 -113.27528 33879 ft 384 kts 284°
2026-04-25 19:27 33.62845 -113.31494 33891 ft 387 kts 285°
2026-04-25 19:27 33.65641 -113.39387 33895 ft 384 kts 285°
2026-04-25 19:28 33.67730 -113.45303 33900 ft 389 kts 285°
2026-04-25 19:28 33.69822 -113.51247 33901 ft 385 kts 285°
2026-04-25 19:29 33.71918 -113.57216 33892 ft 388 kts 285°
2026-04-25 19:29 33.74005 -113.63165 33907 ft 389 kts 285°
2026-04-25 19:30 33.76107 -113.69169 33845 ft 389 kts 284°
2026-04-25 19:30 33.78199 -113.75155 33873 ft 391 kts 285°
2026-04-25 19:31 33.80283 -113.81136 33853 ft 389 kts 284°
2026-04-25 19:31 33.82347 -113.87174 33876 ft 391 kts 284°
2026-04-25 19:32 33.84397 -113.93220 33859 ft 389 kts 284°
2026-04-25 19:32 33.85766 -113.97264 33858 ft 393 kts 284°
2026-04-25 19:33 33.88511 -114.05369 33880 ft 391 kts 284°
2026-04-25 19:33 33.90421 -114.11494 33819 ft 385 kts 279°
2026-04-25 19:34 33.91679 -114.17750 33841 ft 386 kts 276°
2026-04-25 19:34 33.92733 -114.24057 33813 ft 384 kts 275°
2026-04-25 19:35 33.93776 -114.30372 33833 ft 386 kts 275°
2026-04-25 19:35 33.94823 -114.36663 33841 ft 384 kts 275°
2026-04-25 19:36 33.95885 -114.43007 33827 ft 387 kts 275°
2026-04-25 19:36 33.96949 -114.49361 33779 ft 385 kts 275°
2026-04-25 19:37 33.98005 -114.55682 33824 ft 388 kts 275°
2026-04-25 19:37 33.99070 -114.62051 33821 ft 385 kts 275°
2026-04-25 19:38 34.00129 -114.68424 33769 ft 385 kts 275°
2026-04-25 19:38 34.01173 -114.74721 33827 ft 390 kts 275°
2026-04-25 19:39 34.02229 -114.81118 33814 ft 386 kts 275°
2026-04-25 19:39 34.03267 -114.87427 33836 ft 386 kts 275°
2026-04-25 19:40 34.04314 -114.93808 33838 ft 385 kts 275°
2026-04-25 19:40 34.05357 -115.00196 33826 ft 389 kts 275°
2026-04-25 19:41 34.06395 -115.06570 33830 ft 390 kts 275°
2026-04-25 19:41 34.07095 -115.10870 33834 ft 391 kts 275°
2026-04-25 19:42 34.08493 -115.19477 33841 ft 389 kts 275°
2026-04-25 19:42 34.09531 -115.25909 33834 ft 392 kts 275°
2026-04-25 19:43 34.10575 -115.32381 33840 ft 391 kts 275°
2026-04-25 19:43 34.11602 -115.38805 33856 ft 390 kts 275°
2026-04-25 19:44 34.12628 -115.45239 33849 ft 392 kts 275°
2026-04-25 19:44 34.13656 -115.51672 33861 ft 391 kts 275°
2026-04-25 19:45 34.14684 -115.58161 33863 ft 394 kts 275°
2026-04-25 19:45 34.15689 -115.64681 33863 ft 388 kts 273°
2026-04-25 19:46 34.16065 -115.71096 33868 ft 384 kts 264°
2026-04-25 19:46 34.15620 -115.77561 33878 ft 385 kts 259°
2026-04-25 19:47 34.14985 -115.83946 33896 ft 384 kts 259°
2026-04-25 19:47 34.14335 -115.90362 33890 ft 385 kts 259°
2026-04-25 19:48 34.13698 -115.96735 33922 ft 383 kts 259°
2026-04-25 19:48 34.13057 -116.03199 33913 ft 389 kts 259°
2026-04-25 19:49 34.12635 -116.07507 33922 ft 385 kts 260°
2026-04-25 19:49 34.11776 -116.16185 33950 ft 402 kts 260°
2026-04-25 19:50 34.11106 -116.22928 33821 ft 403 kts 260°
2026-04-25 19:50 34.10780 -116.26247 33400 ft 397 kts 260°
2026-04-25 19:50 34.10456 -116.29530 32787 ft 395 kts 260°
2026-04-25 19:51 34.10120 -116.32826 32186 ft 391 kts 260°
2026-04-25 19:51 34.09779 -116.36070 31899 ft 390 kts 259°
2026-04-25 19:51 34.09428 -116.39320 31646 ft 399 kts 260°
2026-04-25 19:51 34.09066 -116.42634 31400 ft 402 kts 260°
2026-04-25 19:52 34.08698 -116.46021 31144 ft 404 kts 260°
2026-04-25 19:52 34.08333 -116.49404 30883 ft 402 kts 260°
2026-04-25 19:52 34.07977 -116.52721 30634 ft 403 kts 261°
2026-04-25 19:52 34.07614 -116.56081 30390 ft 404 kts 260°
2026-04-25 19:53 34.07254 -116.59425 30128 ft 398 kts 260°
2026-04-25 19:53 34.06926 -116.62692 29761 ft 389 kts 261°
2026-04-25 19:53 34.06630 -116.65875 29507 ft 378 kts 261°
2026-04-25 19:53 34.06345 -116.69031 28908 ft 376 kts 261°
2026-04-25 19:54 34.06067 -116.72148 28238 ft 375 kts 261°
2026-04-25 19:54 34.05786 -116.75249 27638 ft 373 kts 261°
2026-04-25 19:54 34.05505 -116.78312 27051 ft 370 kts 261°
2026-04-25 19:54 34.05409 -116.79356 26871 ft 369 kts 261°
2026-04-25 19:55 34.04932 -116.84466 25838 ft 367 kts 260°
2026-04-25 19:55 34.04648 -116.87486 25255 ft 365 kts 261°
2026-04-25 19:55 34.04349 -116.90510 24703 ft 361 kts 259°
2026-04-25 19:55 34.03998 -116.93454 24318 ft 353 kts 258°
2026-04-25 19:56 34.03613 -116.96368 23839 ft 350 kts 258°
2026-04-25 19:56 34.03216 -116.99278 23301 ft 355 kts 258°
2026-04-25 19:56 34.02820 -117.02203 22764 ft 355 kts 258°
2026-04-25 19:56 34.02436 -117.05125 22205 ft 353 kts 259°
2026-04-25 19:57 34.02078 -117.08041 21644 ft 351 kts 259°
2026-04-25 19:57 34.01730 -117.10967 21074 ft 350 kts 259°
2026-04-25 19:57 34.01393 -117.13826 20503 ft 348 kts 259°
2026-04-25 19:57 34.01053 -117.16725 19937 ft 346 kts 259°
2026-04-25 19:58 34.00716 -117.19582 19389 ft 343 kts 259°
2026-04-25 19:58 34.00385 -117.22383 18848 ft 341 kts 259°
2026-04-25 19:58 34.00054 -117.25184 18303 ft 338 kts 259°
2026-04-25 19:58 33.99720 -117.28001 17754 ft 336 kts 259°
2026-04-25 19:59 33.99389 -117.30765 17224 ft 333 kts 260°
2026-04-25 19:59 33.99063 -117.33501 16684 ft 331 kts 259°
2026-04-25 19:59 33.98741 -117.36243 16156 ft 328 kts 260°
2026-04-25 19:59 33.98425 -117.38941 15626 ft 326 kts 260°
2026-04-25 20:00 33.98108 -117.41630 15098 ft 324 kts 260°
2026-04-25 20:00 33.98002 -117.42539 14918 ft 323 kts 259°
2026-04-25 20:00 33.97535 -117.46984 14099 ft 318 kts 263°
2026-04-25 20:00 33.97566 -117.49585 13988 ft 306 kts 272°
2026-04-25 20:01 33.98513 -117.54552 13185 ft 307 kts 282°
2026-04-25 20:01 33.99128 -117.57000 12660 ft 307 kts 283°
2026-04-25 20:01 33.99744 -117.59452 12174 ft 306 kts 283°
2026-04-25 20:02 34.00345 -117.61913 11705 ft 304 kts 283°
2026-04-25 20:02 34.00936 -117.64378 11242 ft 302 kts 282°
2026-04-25 20:02 34.01506 -117.66796 10781 ft 301 kts 282°
2026-04-25 20:02 34.02033 -117.69228 10356 ft 297 kts 277°
2026-04-25 20:03 34.02189 -117.71659 10105 ft 281 kts 265°
2026-04-25 20:03 34.01983 -117.73967 9900 ft 271 kts 260°
2026-04-25 20:03 34.01694 -117.76188 9499 ft 272 kts 260°
2026-04-25 20:03 34.01416 -117.78458 9115 ft 271 kts 261°
2026-04-25 20:04 34.01177 -117.80690 8744 ft 269 kts 262°
2026-04-25 20:04 34.00946 -117.82902 8377 ft 267 kts 261°
2026-04-25 20:04 34.00706 -117.85140 8006 ft 267 kts 262°
2026-04-25 20:04 34.00487 -117.87356 7647 ft 268 kts 263°
2026-04-25 20:05 34.00285 -117.89570 7278 ft 268 kts 263°
2026-04-25 20:05 34.00074 -117.91823 6994 ft 266 kts 262°
2026-04-25 20:05 33.99855 -117.94066 6661 ft 271 kts 262°
2026-04-25 20:05 33.99636 -117.96283 6346 ft 268 kts 262°
2026-04-25 20:06 33.99414 -117.98521 6064 ft 264 kts 262°
2026-04-25 20:06 33.99201 -118.00681 5865 ft 256 kts 262°
2026-04-25 20:06 33.98992 -118.02786 5622 ft 252 kts 262°
2026-04-25 20:06 33.98783 -118.04890 5395 ft 245 kts 262°
2026-04-25 20:07 33.98586 -118.06885 5194 ft 236 kts 262°
2026-04-25 20:07 33.98393 -118.08819 5003 ft 228 kts 262°
2026-04-25 20:07 33.98204 -118.10700 4827 ft 221 kts 262°
2026-04-25 20:07 33.98027 -118.12478 4756 ft 208 kts 262°
2026-04-25 20:08 33.97854 -118.14206 4436 ft 208 kts 262°
2026-04-25 20:08 33.97681 -118.15908 4131 ft 206 kts 262°
2026-04-25 20:08 33.97512 -118.17600 3858 ft 202 kts 262°
2026-04-25 20:08 33.97342 -118.19286 3565 ft 198 kts 261°
2026-04-25 20:09 33.97176 -118.20924 3294 ft 195 kts 262°
2026-04-25 20:09 33.97015 -118.22526 3025 ft 192 kts 262°
2026-04-25 20:09 33.96852 -118.24116 2764 ft 188 kts 262°
2026-04-25 20:09 33.96694 -118.25672 2508 ft 183 kts 261°
2026-04-25 20:10 33.96539 -118.27190 2260 ft 183 kts 261°
2026-04-25 20:10 33.96391 -118.28666 2022 ft 172 kts 261°
2026-04-25 20:10 33.96254 -118.30022 1797 ft 158 kts 261°
2026-04-25 20:10 33.96125 -118.31321 1588 ft 153 kts 261°
2026-04-25 20:11 33.96025 -118.32593 1395 ft 152 kts 262°
2026-04-25 20:11 33.95891 -118.33848 1223 ft 153 kts 261°
2026-04-25 20:11 33.95752 -118.35113 1069 ft 150 kts 260°
2026-04-25 20:11 33.95610 -118.36367 800 ft 154 kts 260°
2026-04-25 20:12 33.95480 -118.37637 549 ft 151 kts 260°
2026-04-25 20:12 33.95347 -118.38872 361 ft 145 kts 260°
2026-04-25 20:12 33.95226 -118.40083 162 ft 144 kts 260°
2026-04-25 20:12 33.95184 -118.40482 127 ft 139 kts 259°
2026-04-25 20:13 33.95048 -118.41794 124 ft 65 kts 262°
2026-04-25 20:13 33.95000 -118.42273 121 ft 44 kts 260°
2026-04-25 20:13 33.94936 -118.42543 118 ft 24 kts 240°
2026-04-25 20:13 33.94859 -118.42671 115 ft 12 kts 225°
2026-04-25 20:14 33.94855 -118.42677 115 ft 0 kts 225°
2026-04-25 20:14 33.94850 -118.42682 114 ft 2 kts 223°
2026-04-25 20:14 33.94821 -118.42713 113 ft 8 kts 221°
2026-04-25 20:15 33.94730 -118.42774 111 ft 18 kts 195°
2026-04-25 20:15 33.94650 -118.42779 111 ft 7 kts 174°
2026-04-25 20:15 33.94595 -118.42771 110 ft 8 kts 173°
2026-04-25 20:15 33.94554 -118.42721 109 ft 10 kts 94°
2026-04-25 20:16 33.94561 -118.42622 110 ft 11 kts 83°
2026-04-25 20:16 33.94570 -118.42537 112 ft 8 kts 83°
2026-04-25 20:16 33.94579 -118.42459 113 ft 14 kts 83°
2026-04-25 20:16 33.94592 -118.42319 116 ft 15 kts 84°
2026-04-25 20:17 33.94603 -118.42197 118 ft 13 kts 83°
2026-04-25 20:17 33.94616 -118.42087 118 ft 12 kts 83°
2026-04-25 20:17 33.94625 -118.41998 120 ft 9 kts 84°
2026-04-25 20:17 33.94633 -118.41872 120 ft 20 kts 84°
2026-04-25 20:18 33.94652 -118.41711 121 ft 18 kts 84°
2026-04-25 20:18 33.94665 -118.41557 121 ft 17 kts 84°
2026-04-25 20:18 33.94682 -118.41414 121 ft 16 kts 82°
2026-04-25 20:18 33.94696 -118.41282 122 ft 14 kts 82°
2026-04-25 20:19 33.94719 -118.41179 124 ft 11 kts 70°
2026-04-25 20:19 33.94733 -118.41089 124 ft 10 kts 84°
2026-04-25 20:19 33.94740 -118.41009 124 ft 9 kts 83°
2026-04-25 20:19 33.94752 -118.40906 122 ft 15 kts 82°
2026-04-25 20:20 33.94769 -118.40756 123 ft 23 kts 81°
2026-04-25 20:20 33.94789 -118.40550 121 ft 23 kts 84°
2026-04-25 20:20 33.94807 -118.40379 118 ft 16 kts 84°
2026-04-25 20:20 33.94791 -118.40285 117 ft 9 kts 135°
2026-04-25 20:21 33.94769 -118.40240 117 ft 4 kts 104°
2026-04-25 20:21 33.94761 -118.40207 117 ft 3 kts 110°
2026-04-25 20:21 33.94759 -118.40198 117 ft 0 kts 110°